Location: Christianberg
(48.9086°N, 14.0209°E)
Time: 21:23:18
(UTC+00:00)

USA 281 - Pass Details

Date: 20 June 2021
Orbit: 1078 x 1081 km, 106.0° (Epoch: 18 July)

Event Time Altitude Azimuth Distance (km) Brightness Sun altitude
Rises 02:08:35 0° 164° (SSE) 3,866 5.8 -6.9°
Reaches altitude 10° 02:11:07 10° 168° (SSE) 2,914 5.2 -6.7°
Maximum altitude 02:17:35 61° 248° (WSW) 1,216 3.3 -5.9°
Drops below altitude 10° 02:24:07 10° 329° (NNW) 2,933 5.7 -5.2°
Sets 02:26:41 0° 333° (NNW) 3,892 6.4 -4.9°
